1547830800.49,53871,0.0,0.0,-16.65,-18.01,-18.01,0,*6C
1547830801.76,53872,0.0,0.0,-16.65,-18.01,-18.11,0,*6E
1547830802.99,53873,0.0,0.0,-16.65,-18.25,-18.41,0,*6C
1547830804.23,53874,0.0,0.0,-16.65,-18.41,-18.73,0,*68
1547830805.47,53875,0.0,0.0,-16.65,-18.65,-19.17,0,*6C
1547830806.74,53876,0.0,0.0,-16.63,-18.93,-19.31,0,*64
1547830808.01,53877,0.0,0.0,-16.67,-19.23,-19.41,0,*6C
1547830809.23,53878,0.0,0.0,-16.67,-19.51,-19.51,0,*67
1547830810.52,53879,0.0,0.0,-16.69,-19.61,-19.27,0,*6A
1547830811.78,53880,0.0,0.0,-16.69,-19.07,-18.59,0,*64
1547830813.02,53881,0.0,0.0,-16.69,-18.45,-18.21,0,*6D
1547830814.25,53882,0.0,0.0,-16.69,-18.17,-18.17,0,*6C
1547830815.5,53883,0.0,0.0,-16.69,-18.07,-18.07,0,*6D
1547830816.79,53884,0.0,0.0,-16.69,-18.01,-18.01,0,*6A
1547830818.05,53885,0.0,0.0,-16.67,-17.93,-17.93,0,*65
1547830819.31,53886,0.0,0.0,-16.69,-17.79,-17.73,0,*62
1547830820.54,53887,0.0,0.0,-16.69,-17.73,-17.73,0,*69
1547830821.78,53888,0.0,0.0,-16.67,-17.73,-17.63,0,*69
1547830823.07,53889,0.0,0.0,-16.69,-17.63,-17.63,0,*67
1547830824.33,53890,0.0,0.0,-16.67,-17.63,-17.59,0,*68
1547830825.6,53891,0.0,0.0,-16.67,-17.63,-17.59,0,*69
1547830826.88,53892,0.0,0.0,-16.69,-17.63,-17.63,0,*6D
1547830828.16,53893,0.0,0.0,-16.69,-17.63,-17.63,0,*6C
1547830829.4,53894,0.0,0.0,-16.69,-17.73,-17.73,0,*6B
1547830830.64,53895,0.0,0.0,-16.67,-17.63,-17.73,0,*65
1547830831.9,53896,0.0,0.0,-16.69,-17.73,-17.63,0,*68
1547830833.13,53897,0.0,0.0,-16.67,-17.63,-17.73,0,*67
1547830834.39,53898,0.0,0.0,-16.67,-17.79,-17.63,0,*62
1547830835.66,53899,0.0,0.0,-16.67,-17.63,-17.59,0,*61
1547830836.93,53900,0.0,0.0,-16.67,-17.59,-17.59,0,*69
1547830838.19,53901,0.0,0.0,-16.67,-17.55,-17.59,0,*64
1547830839.46,53902,0.0,0.0,-16.67,-17.59,-17.55,0,*67
1547830840.72,53903,0.0,0.0,-16.67,-17.59,-17.55,0,*66
1547830841.99,53904,0.0,0.0,-16.67,-17.55,-17.59,0,*61
1547830843.26,53905,0.0,0.0,-16.67,-17.59,-17.59,0,*6C
1547830844.53,53906,0.0,0.0,-16.67,-17.59,-17.59,0,*6F
1547830845.79,53907,0.0,0.0,-16.67,-17.55,-17.59,0,*62
1547830847.03,53908,0.0,0.0,-16.65,-17.49,-17.49,0,*63
1547830848.31,53909,0.0,0.0,-16.65,-17.55,-17.55,0,*62
1547830849.58,53910,0.0,0.0,-16.67,-17.63,-17.59,0,*61
1547830850.85,53911,0.0,0.0,-16.67,-17.59,-17.59,0,*69
1547830852.11,53912,0.0,0.0,-16.67,-17.55,-17.55,0,*6A
1547830853.4,53913,0.0,0.0,-16.69,-17.59,-17.55,0,*69
1547830854.67,53914,0.0,0.0,-16.67,-17.59,-17.55,0,*60
1547830855.95,53915,0.0,0.0,-16.65,-17.55,-17.59,0,*63
1547830857.19,53916,0.0,0.0,-16.65,-17.69,-17.69,0,*6C
1547830858.42,53917,0.0,0.0,-16.65,-17.73,-17.73,0,*6D
1547830859.68,53918,0.0,0.0,-16.65,-17.59,-17.69,0,*61
1547830860.95,53919,0.0,0.0,-16.67,-17.59,-17.63,0,*68
1547830862.21,53920,0.0,0.0,-16.67,-17.55,-17.63,0,*6E
1547830863.48,53921,0.0,0.0,-16.67,-17.59,-17.63,0,*63
1547830864.74,53922,0.0,0.0,-16.67,-17.59,-17.63,0,*60
1547830866.01,53923,0.0,0.0,-16.67,-17.59,-17.55,0,*64
1547830867.27,53924,0.0,0.0,-16.67,-17.55,-17.55,0,*6F
1547830868.56,53925,0.0,0.0,-16.65,-17.59,-17.59,0,*6C
1547830869.85,53926,0.0,0.0,-16.65,-17.55,-17.55,0,*6F
1547830871.11,53927,0.0,0.0,-16.67,-17.59,-17.55,0,*60
1547830872.4,53928,0.0,0.0,-16.65,-17.41,-17.41,0,*61
1547830873.69,53929,0.0,0.0,-16.65,-17.55,-17.41,0,*65
1547830874.99,53930,0.0,0.0,-16.65,-17.41,-17.41,0,*68
1547830876.25,53931,0.0,0.0,-16.65,-17.35,-17.41,0,*6A
1547830877.49,53932,0.0,0.0,-16.63,-17.49,-17.55,0,*61
1547830878.78,53933,0.0,0.0,-16.65,-17.55,-17.55,0,*6B
1547830880.06,53934,0.0,0.0,-16.65,-17.55,-17.55,0,*6C
1547830881.35,53935,0.0,0.0,-16.65,-17.55,-17.55,0,*6D
1547830882.63,53936,0.0,0.0,-16.65,-17.55,-17.55,0,*6E
1547830883.87,53937,0.0,0.0,-16.63,-17.55,-17.49,0,*64
1547830885.16,53938,0.0,0.0,-16.65,-17.41,-17.55,0,*65
1547830886.42,53939,0.0,0.0,-16.65,-17.49,-17.55,0,*6C
1547830887.71,53940,0.0,0.0,-16.65,-17.55,-17.55,0,*6F
1547830889.0,53941,0.0,0.0,-16.65,-17.59,-17.59,0,*6E
1547830890.28,53942,0.0,0.0,-16.65,-17.55,-17.55,0,*6D
1547830891.55,53943,0.0,0.0,-16.65,-17.49,-17.55,0,*61
1547830892.78,53944,0.0,0.0,-16.65,-17.49,-17.49,0,*6B
1547830894.02,53945,0.0,0.0,-16.63,-17.49,-17.55,0,*61
1547830895.23,53946,0.0,0.0,-16.63,-17.49,-17.49,0,*6F
1547830896.52,53947,0.0,0.0,-16.65,-17.55,-17.55,0,*68
1547830897.8,53948,0.0,0.0,-16.65,-17.55,-17.55,0,*67
1547830899.04,53949,0.0,0.0,-16.65,-17.69,-17.69,0,*66
1547830900.33,53950,0.0,0.0,-16.65,-17.59,-17.59,0,*6E
1547830901.56,53951,0.0,0.0,-16.65,-17.73,-17.69,0,*64
1547830902.8,53952,0.0,0.0,-16.65,-17.69,-17.69,0,*6C
1547830904.06,53953,0.0,0.0,-16.67,-17.63,-17.63,0,*6F
1547830905.32,53954,0.0,0.0,-16.67,-17.63,-17.63,0,*68
1547830906.56,53955,0.0,0.0,-16.63,-17.59,-17.69,0,*6E
1547830907.8,53956,0.0,0.0,-16.65,-17.69,-17.69,0,*68
1547830909.08,53957,0.0,0.0,-16.65,-17.59,-17.59,0,*69
1547830910.35,53958,0.0,0.0,-16.65,-17.69,-17.59,0,*65
1547830911.64,53959,0.0,0.0,-16.65,-17.59,-17.59,0,*67
1547830912.92,53960,0.0,0.0,-16.65,-17.59,-17.59,0,*6D
1547830914.21,53961,0.0,0.0,-16.65,-17.59,-17.59,0,*6C
1547830915.5,53962,0.0,0.0,-16.65,-17.55,-17.55,0,*6F
1547830916.77,53963,0.0,0.0,-16.67,-17.59,-17.59,0,*6C
1547830918.03,53964,0.0,0.0,-16.67,-17.55,-17.59,0,*67
1547830919.3,53965,0.0,0.0,-16.67,-17.63,-17.59,0,*63
1547830920.58,53966,0.0,0.0,-16.65,-17.59,-17.55,0,*67
1547830921.84,53967,0.0,0.0,-16.65,-17.55,-17.49,0,*67
1547830923.08,53968,0.0,0.0,-16.65,-17.49,-17.49,0,*65
1547830924.34,53969,0.0,0.0,-16.65,-17.49,-17.55,0,*69
1547830925.58,53970,0.0,0.0,-16.65,-17.49,-17.49,0,*6C
1547830926.79,53971,0.0,0.0,-16.63,-17.49,-17.49,0,*6B
1547830928.08,53972,0.0,0.0,-16.65,-17.41,-17.41,0,*6E
1547830929.32,53973,0.0,0.0,-16.65,-17.49,-17.49,0,*6F
1547830930.56,53974,0.0,0.0,-16.63,-17.49,-17.55,0,*63
1547830931.84,53975,0.0,0.0,-16.65,-17.55,-17.55,0,*69
1547830933.13,53976,0.0,0.0,-16.65,-17.55,-17.55,0,*6A
1547830934.42,53977,0.0,0.0,-16.65,-17.55,-17.55,0,*6B
1547830935.7,53978,0.0,0.0,-16.65,-17.55,-17.55,0,*64
1547830936.99,53979,0.0,0.0,-16.65,-17.55,-17.55,0,*65
1547830938.25,53980,0.0,0.0,-16.67,-17.59,-17.59,0,*61
1547830939.52,53981,0.0,0.0,-16.67,-17.59,-17.59,0,*60
1547830940.79,53982,0.0,0.0,-16.67,-17.55,-17.55,0,*63
1547830942.05,53983,0.0,0.0,-16.65,-17.49,-17.55,0,*6D
1547830943.34,53984,0.0,0.0,-16.65,-17.55,-17.55,0,*67
1547830944.57,53985,0.0,0.0,-16.65,-17.49,-17.49,0,*66
1547830945.86,53986,0.0,0.0,-16.65,-17.55,-17.55,0,*65
1547830947.12,53987,0.0,0.0,-16.65,-17.55,-17.49,0,*69
1547830948.35,53988,0.0,0.0,-16.65,-17.49,-17.49,0,*6B
1547830949.61,53989,0.0,0.0,-16.63,-17.55,-17.55,0,*6C
1547830950.9,53990,0.0,0.0,-16.65,-17.55,-17.55,0,*62
1547830952.14,53991,0.0,0.0,-16.67,-17.55,-17.49,0,*6C
1547830953.4,53992,0.0,0.0,-16.67,-17.59,-17.55,0,*6E
1547830954.67,53993,0.0,0.0,-16.65,-17.49,-17.55,0,*6C
1547830955.93,53994,0.0,0.0,-16.65,-17.35,-17.41,0,*65
1547830957.23,53995,0.0,0.0,-16.65,-17.41,-17.41,0,*67
1547830958.49,53996,0.0,0.0,-16.65,-17.35,-17.41,0,*67
1547830959.74,53997,0.0,0.0,-16.65,-17.35,-17.35,0,*65
1547830961.01,53998,0.0,0.0,-16.65,-17.35,-17.41,0,*69
1547830962.28,53999,0.0,0.0,-16.65,-17.41,-17.35,0,*68
1547830963.55,54000,0.0,0.0,-16.63,-17.41,-17.41,0,*63
1547830964.79,54001,0.0,0.0,-16.63,-17.35,-17.41,0,*61
1547830966.07,54002,0.0,0.0,-16.65,-17.41,-17.35,0,*64
1547830967.33,54003,0.0,0.0,-16.65,-17.41,-17.49,0,*6E
1547830968.6,54004,0.0,0.0,-16.63,-17.41,-17.41,0,*67
1547830969.88,54005,0.0,0.0,-16.65,-17.41,-17.35,0,*63
1547830971.11,54006,0.0,0.0,-16.61,-17.31,-17.31,0,*67
1547830972.37,54007,0.0,0.0,-16.65,-17.49,-17.41,0,*6A
1547830973.64,54008,0.0,0.0,-16.63,-17.41,-17.41,0,*6B
1547830974.87,54009,0.0,0.0,-16.63,-17.35,-17.35,0,*6A
1547830976.09,54010,0.0,0.0,-16.63,-17.35,-17.35,0,*62
1547830977.33,54011,0.0,0.0,-16.61,-17.31,-17.35,0,*65
1547830978.63,54012,0.0,0.0,-16.65,-17.41,-17.41,0,*66
1547830979.89,54013,0.0,0.0,-16.65,-17.41,-17.49,0,*6F
1547830981.18,54014,0.0,0.0,-16.65,-17.55,-17.55,0,*60
1547830982.41,54015,0.0,0.0,-16.65,-17.49,-17.49,0,*61
1547830983.63,54016,0.0,0.0,-16.63,-17.49,-17.49,0,*64
1547830984.84,54017,0.0,0.0,-16.63,-17.49,-17.49,0,*65
1547830986.1,54018,0.0,0.0,-16.63,-17.55,-17.55,0,*6A
1547830987.31,54019,0.0,0.0,-16.63,-17.49,-17.49,0,*6B
1547830988.52,54020,0.0,0.0,-16.63,-17.49,-17.49,0,*61
1547830989.77,54021,0.0,0.0,-16.63,-17.41,-17.49,0,*68
1547830991.03,54022,0.0,0.0,-16.63,-17.55,-17.55,0,*63
1547830992.27,54023,0.0,0.0,-16.61,-17.35,-17.49,0,*6B
1547830993.51,54024,0.0,0.0,-16.61,-17.35,-17.49,0,*6C
1547830994.81,54025,0.0,0.0,-16.61,-17.45,-17.45,0,*66
1547830996.06,54026,0.0,0.0,-16.61,-17.35,-17.35,0,*65
1547830997.3,54027,0.0,0.0,-16.61,-17.31,-17.35,0,*60
1547830998.55,54028,0.0,0.0,-16.63,-17.41,-17.35,0,*6A
1547830999.79,54029,0.0,0.0,-16.61,-17.35,-17.31,0,*6E
1547831001.02,54030,0.0,0.0,-16.61,-17.31,-17.31,0,*62
1547831002.28,54031,0.0,0.0,-16.61,-17.21,-17.31,0,*62
1547831003.53,54032,0.0,0.0,-16.61,-17.35,-17.35,0,*60
1547831004.76,54033,0.0,0.0,-16.61,-17.31,-17.31,0,*61
1547831005.99,54034,0.0,0.0,-16.61,-17.31,-17.31,0,*66
1547831007.25,54035,0.0,0.0,-16.61,-17.21,-17.31,0,*66
1547831008.49,54036,0.0,0.0,-16.61,-17.31,-17.31,0,*64
1547831009.71,54037,0.0,0.0,-16.63,-17.35,-17.35,0,*67
1547831010.97,54038,0.0,0.0,-16.61,-17.31,-17.21,0,*6B
1547831012.2,54039,0.0,0.0,-16.61,-17.31,-17.31,0,*6B
1547831013.48,54040,0.0,0.0,-16.61,-17.21,-17.35,0,*60
1547831014.74,54041,0.0,0.0,-16.61,-17.17,-17.31,0,*60
1547831015.97,54042,0.0,0.0,-16.61,-17.31,-17.31,0,*67
1547831017.18,54043,0.0,0.0,-16.59,-17.31,-17.31,0,*6D
1547831018.42,54044,0.0,0.0,-16.59,-17.17,-17.31,0,*6E
1547831019.66,54045,0.0,0.0,-16.59,-17.31,-17.21,0,*6A
1547831020.9,54046,0.0,0.0,-16.61,-17.35,-17.31,0,*67
1547831022.13,54047,0.0,0.0,-16.61,-17.31,-17.31,0,*62
1547831023.38,54048,0.0,0.0,-16.59,-17.45,-17.35,0,*61
1547831024.65,54049,0.0,0.0,-16.61,-17.35,-17.45,0,*6B
1547831025.92,54050,0.0,0.0,-16.61,-17.35,-17.45,0,*63
1547831027.19,54051,0.0,0.0,-16.61,-17.49,-17.45,0,*69
1547831028.46,54052,0.0,0.0,-16.61,-17.35,-17.45,0,*61
1547831029.7,54053,0.0,0.0,-16.59,-17.31,-17.45,0,*6F
1547831030.99,54054,0.0,0.0,-16.61,-17.45,-17.45,0,*60
1547831032.23,54055,0.0,0.0,-16.59,-17.49,-17.45,0,*66
1547831033.45,54056,0.0,0.0,-16.59,-17.49,-17.49,0,*69
1547831034.74,54057,0.0,0.0,-16.61,-17.55,-17.63,0,*66
1547831036.0,54058,0.0,0.0,-16.59,-17.55,-17.63,0,*62
1547831037.26,54059,0.0,0.0,-16.61,-17.69,-17.79,0,*6C
1547831038.53,54060,0.0,0.0,-16.61,-17.69,-17.79,0,*66
1547831039.77,54061,0.0,0.0,-16.61,-17.83,-17.83,0,*66
1547831041.07,54062,0.0,0.0,-16.61,-17.93,-17.97,0,*61
1547831042.36,54063,0.0,0.0,-16.61,-17.93,-17.97,0,*60
1547831043.62,54064,0.0,0.0,-16.61,-17.93,-18.07,0,*61
1547831044.89,54065,0.0,0.0,-16.61,-17.83,-17.93,0,*63
1547831046.15,54066,0.0,0.0,-16.61,-17.69,-17.79,0,*60
1547831047.43,54067,0.0,0.0,-16.61,-17.79,-17.79,0,*60
1547831048.67,54068,0.0,0.0,-16.61,-17.69,-17.69,0,*6F
1547831049.96,54069,0.0,0.0,-16.61,-17.63,-17.55,0,*6B
1547831051.24,54070,0.0,0.0,-16.61,-17.63,-17.63,0,*66
1547831052.45,54071,0.0,0.0,-16.63,-17.69,-17.73,0,*6E
1547831053.69,54072,0.0,0.0,-16.63,-17.73,-17.59,0,*6E
1547831054.9,54073,0.0,0.0,-16.63,-17.69,-17.73,0,*6C
1547831056.14,54074,0.0,0.0,-16.63,-17.59,-17.69,0,*63
1547831057.4,54075,0.0,0.0,-16.63,-17.59,-17.59,0,*61
1547831058.64,54076,0.0,0.0,-16.63,-17.69,-17.59,0,*61
1547831059.91,54077,0.0,0.0,-16.63,-17.59,-17.59,0,*63
1547831061.15,54078,0.0,0.0,-16.65,-17.73,-17.83,0,*65
1547831062.41,54079,0.0,0.0,-16.63,-17.97,-18.01,0,*6D
1547831063.63,54080,0.0,0.0,-16.63,-18.11,-18.11,0,*6B
1547831064.85,54081,0.0,0.0,-16.63,-18.25,-18.11,0,*6D
1547831066.05,54082,0.0,0.0,-16.63,-18.17,-18.25,0,*68
1547831067.29,54083,0.0,0.0,-16.63,-18.17,-18.01,0,*6F
1547831068.54,54084,0.0,0.0,-16.63,-18.01,-17.87,0,*6E
1547831069.75,54085,0.0,0.0,-16.63,-17.87,-17.73,0,*65
1547831070.99,54086,0.0,0.0,-16.65,-17.83,-17.73,0,*64
1547831072.2,54087,0.0,0.0,-16.63,-17.87,-17.73,0,*67
1547831073.41,54088,0.0,0.0,-16.63,-17.73,-17.69,0,*68
1547831074.67,54089,0.0,0.0,-16.65,-17.69,-17.59,0,*67
1547831075.91,54090,0.0,0.0,-16.65,-17.73,-17.69,0,*67
1547831077.17,54091,0.0,0.0,-16.65,-17.73,-17.59,0,*65
1547831078.44,54092,0.0,0.0,-16.63,-17.59,-17.59,0,*68
1547831079.7,54093,0.0,0.0,-16.65,-17.55,-17.49,0,*62
1547831080.98,54094,0.0,0.0,-16.65,-17.55,-17.55,0,*68
1547831082.19,54095,0.0,0.0,-16.63,-17.49,-17.49,0,*6F
1547831083.45,54096,0.0,0.0,-16.65,-17.55,-17.49,0,*67
1547831084.75,54097,0.0,0.0,-16.65,-17.41,-17.55,0,*6E
1547831086.01,54098,0.0,0.0,-16.63,-17.41,-17.41,0,*62
1547831087.26,54099,0.0,0.0,-16.65,-17.49,-17.35,0,*6E
1547831088.53,54100,0.0,0.0,-16.63,-17.41,-17.41,0,*62
1547831089.75,54101,0.0,0.0,-16.63,-17.35,-17.35,0,*63
1547831090.98,54102,0.0,0.0,-16.63,-17.35,-17.35,0,*60
1547831092.19,54103,0.0,0.0,-16.63,-17.49,-17.49,0,*61
1547831093.45,54104,0.0,0.0,-16.63,-17.55,-17.55,0,*66
1547831094.66,54105,0.0,0.0,-16.63,-17.49,-17.49,0,*67
1547831095.9,54106,0.0,0.0,-16.63,-17.49,-17.55,0,*69
1547831097.14,54107,0.0,0.0,-16.63,-17.49,-17.55,0,*68
1547831098.4,54108,0.0,0.0,-16.65,-17.55,-17.49,0,*61
1547831099.66,54109,0.0,0.0,-16.63,-17.55,-17.59,0,*67
1547831100.93,54110,0.0,0.0,-16.63,-17.55,-17.59,0,*6F
1547831102.17,54111,0.0,0.0,-16.63,-17.59,-17.69,0,*61
1547831103.38,54112,0.0,0.0,-16.63,-17.69,-17.73,0,*6A
1547831104.59,54113,0.0,0.0,-16.63,-17.73,-17.73,0,*60
1547831105.81,54114,0.0,0.0,-16.63,-17.87,-17.83,0,*63
1547831107.05,54115,0.0,0.0,-16.63,-17.97,-17.87,0,*67
1547831108.35,54116,0.0,0.0,-16.65,-17.97,-17.97,0,*63
1547831109.62,54117,0.0,0.0,-16.63,-17.97,-17.97,0,*64
1547831110.86,54118,0.0,0.0,-16.65,-17.87,-17.83,0,*69
1547831112.07,54119,0.0,0.0,-16.63,-17.73,-17.73,0,*6A
1547831113.28,54120,0.0,0.0,-16.63,-17.73,-17.73,0,*60
1547831114.55,54121,0.0,0.0,-16.65,-17.69,-17.59,0,*64
1547831115.81,54122,0.0,0.0,-16.65,-17.59,-17.69,0,*67
1547831117.1,54123,0.0,0.0,-16.65,-17.59,-17.59,0,*65
1547831118.38,54124,0.0,0.0,-16.65,-17.59,-17.59,0,*62
1547831119.62,54125,0.0,0.0,-16.63,-17.49,-17.55,0,*68
1547831120.89,54126,0.0,0.0,-16.65,-17.49,-17.41,0,*68
1547831122.18,54127,0.0,0.0,-16.65,-17.41,-17.41,0,*61
1547831123.45,54128,0.0,0.0,-16.65,-17.49,-17.41,0,*66
1547831124.71,54129,0.0,0.0,-16.65,-17.55,-17.49,0,*62
1547831125.97,54130,0.0,0.0,-16.65,-17.49,-17.55,0,*6A
1547831127.25,54131,0.0,0.0,-16.65,-17.55,-17.55,0,*66
1547831128.51,54132,0.0,0.0,-16.63,-17.55,-17.55,0,*63
1547831129.78,54133,0.0,0.0,-16.65,-17.49,-17.55,0,*69
1547831131.04,54134,0.0,0.0,-16.63,-17.59,-17.55,0,*69
1547831132.3,54135,0.0,0.0,-16.63,-17.59,-17.59,0,*64
1547831133.57,54136,0.0,0.0,-16.63,-17.59,-17.59,0,*67
1547831134.83,54137,0.0,0.0,-16.63,-17.59,-17.55,0,*6A
1547831136.09,54138,0.0,0.0,-16.63,-17.55,-17.55,0,*69
1547831137.33,54139,0.0,0.0,-16.65,-17.49,-17.49,0,*6E
1547831138.59,54140,0.0,0.0,-16.63,-17.55,-17.55,0,*66
1547831139.85,54141,0.0,0.0,-16.65,-17.55,-17.49,0,*6C
1547831141.06,54142,0.0,0.0,-16.63,-17.49,-17.49,0,*64
1547831142.3,54143,0.0,0.0,-16.65,-17.49,-17.49,0,*63
1547831143.53,54144,0.0,0.0,-16.65,-17.49,-17.49,0,*64
1547831144.8,54145,0.0,0.0,-16.63,-17.55,-17.55,0,*63
1547831146.06,54146,0.0,0.0,-16.63,-17.55,-17.55,0,*60
1547831147.32,54147,0.0,0.0,-16.63,-17.55,-17.55,0,*61
1547831148.53,54148,0.0,0.0,-16.63,-17.49,-17.49,0,*6E
1547831149.79,54149,0.0,0.0,-16.65,-17.49,-17.55,0,*64
1547831151.03,54150,0.0,0.0,-16.65,-17.49,-17.49,0,*61
1547831152.27,54151,0.0,0.0,-16.63,-17.49,-17.55,0,*6B
1547831153.53,54152,0.0,0.0,-16.65,-17.55,-17.49,0,*6E
1547831154.77,54153,0.0,0.0,-16.61,-17.49,-17.49,0,*66
1547831156.03,54154,0.0,0.0,-16.65,-17.55,-17.49,0,*68
1547831157.26,54155,0.0,0.0,-16.65,-17.49,-17.49,0,*64
1547831158.5,54156,0.0,0.0,-16.63,-17.41,-17.49,0,*69
1547831159.74,54157,0.0,0.0,-16.63,-17.41,-17.49,0,*68
1547831160.98,54158,0.0,0.0,-16.63,-17.49,-17.55,0,*62
1547831162.24,54159,0.0,0.0,-16.63,-17.55,-17.55,0,*6E
1547831163.51,54160,0.0,0.0,-16.63,-17.55,-17.55,0,*64
1547831164.72,54161,0.0,0.0,-16.63,-17.49,-17.49,0,*65
1547831165.97,54162,0.0,0.0,-16.61,-17.35,-17.35,0,*64
1547831167.24,54163,0.0,0.0,-16.61,-17.45,-17.35,0,*62
1547831168.52,54164,0.0,0.0,-16.61,-17.45,-17.35,0,*65
1547831169.81,54165,0.0,0.0,-16.61,-17.45,-17.45,0,*63
1547831171.03,54166,0.0,0.0,-16.63,-17.49,-17.49,0,*62
1547831172.24,54167,0.0,0.0,-16.63,-17.49,-17.49,0,*63
1547831173.48,54168,0.0,0.0,-16.61,-17.35,-17.31,0,*6A
1547831174.75,54169,0.0,0.0,-16.61,-17.35,-17.45,0,*68
1547831176.02,54170,0.0,0.0,-16.61,-17.35,-17.45,0,*60
1547831177.26,54171,0.0,0.0,-16.63,-17.41,-17.49,0,*6C
1547831178.5,54172,0.0,0.0,-16.63,-17.41,-17.49,0,*6F
1547831179.74,54173,0.0,0.0,-16.63,-17.49,-17.55,0,*6B
1547831180.97,54174,0.0,0.0,-16.63,-17.55,-17.49,0,*6C
1547831182.22,54175,0.0,0.0,-16.63,-17.41,-17.49,0,*68
1547831183.45,54176,0.0,0.0,-16.63,-17.55,-17.49,0,*6E
1547831184.69,54177,0.0,0.0,-16.63,-17.41,-17.49,0,*6A
1547831185.94,54178,0.0,0.0,-16.61,-17.35,-17.35,0,*6F
1547831187.18,54179,0.0,0.0,-16.61,-17.35,-17.31,0,*6A
1547831188.41,54180,0.0,0.0,-16.61,-17.31,-17.31,0,*68
1547831189.64,54181,0.0,0.0,-16.61,-17.31,-17.31,0,*69
1547831190.91,54182,0.0,0.0,-16.61,-17.35,-17.45,0,*6D
1547831192.16,54183,0.0,0.0,-16.61,-17.35,-17.49,0,*60
1547831193.39,54184,0.0,0.0,-16.61,-17.31,-17.31,0,*6C
1547831194.64,54185,0.0,0.0,-16.61,-17.35,-17.35,0,*6D
1547831195.88,54186,0.0,0.0,-16.59,-17.49,-17.45,0,*69
1547831197.12,54187,0.0,0.0,-16.61,-17.49,-17.49,0,*6F
1547831198.4,54188,0.0,0.0,-16.61,-17.63,-17.55,0,*65
1547831199.66,54189,0.0,0.0,-16.61,-17.63,-17.69,0,*6B
1547831200.95,54190,0.0,0.0,-16.61,-17.63,-17.63,0,*69
1547831202.23,54191,0.0,0.0,-16.61,-17.55,-17.55,0,*68
1547831203.5,54192,0.0,0.0,-16.59,-17.63,-17.63,0,*60
1547831204.78,54193,0.0,0.0,-16.61,-17.63,-17.55,0,*6F
1547831206.07,54194,0.0,0.0,-16.61,-17.55,-17.55,0,*6D
1547831207.3,54195,0.0,0.0,-16.59,-17.63,-17.49,0,*6F
1547831208.59,54196,0.0,0.0,-16.61,-17.55,-17.55,0,*6F
1547831209.88,54197,0.0,0.0,-16.61,-17.55,-17.55,0,*6E
1547831211.14,54198,0.0,0.0,-16.63,-17.59,-17.59,0,*63
1547831212.43,54199,0.0,0.0,-16.61,-17.55,-17.55,0,*60
1547831213.72,54200,0.0,0.0,-16.61,-17.55,-17.55,0,*63
1547831214.98,54201,0.0,0.0,-16.63,-17.59,-17.59,0,*60
1547831216.25,54202,0.0,0.0,-16.61,-17.49,-17.55,0,*6C
1547831217.51,54203,0.0,0.0,-16.61,-17.49,-17.63,0,*68
1547831218.75,54204,0.0,0.0,-16.61,-17.49,-17.49,0,*67
1547831219.99,54205,0.0,0.0,-16.61,-17.49,-17.49,0,*66
1547831221.23,54206,0.0,0.0,-16.61,-17.49,-17.49,0,*65
1547831222.52,54207,0.0,0.0,-16.61,-17.45,-17.45,0,*64
1547831223.82,54208,0.0,0.0,-16.61,-17.45,-17.45,0,*6B
1547831225.05,54209,0.0,0.0,-16.63,-17.55,-17.49,0,*65
1547831226.27,54210,0.0,0.0,-16.63,-17.49,-17.49,0,*60
1547831227.51,54211,0.0,0.0,-16.59,-17.49,-17.45,0,*64
1547831228.72,54212,0.0,0.0,-16.59,-17.49,-17.49,0,*6B
1547831229.94,54213,0.0,0.0,-16.59,-17.49,-17.49,0,*6A
1547831231.18,54214,0.0,0.0,-16.61,-17.49,-17.49,0,*66
1547831232.42,54215,0.0,0.0,-16.59,-17.45,-17.49,0,*60
1547831233.63,54216,0.0,0.0,-16.63,-17.49,-17.49,0,*66
1547831234.87,54217,0.0,0.0,-16.63,-17.49,-17.55,0,*6A
1547831236.08,54218,0.0,0.0,-16.63,-17.49,-17.49,0,*68
1547831237.33,54219,0.0,0.0,-16.63,-17.41,-17.49,0,*61
1547831238.6,54220,0.0,0.0,-16.63,-17.41,-17.41,0,*63
1547831239.85,54221,0.0,0.0,-16.63,-17.41,-17.35,0,*61
1547831241.06,54222,0.0,0.0,-16.63,-17.35,-17.49,0,*6A
1547831242.29,54223,0.0,0.0,-16.59,-17.35,-17.35,0,*69
1547831243.53,54224,0.0,0.0,-16.61,-17.31,-17.35,0,*61
1547831244.77,54225,0.0,0.0,-16.61,-17.35,-17.31,0,*60
1547831246.02,54226,0.0,0.0,-16.61,-17.35,-17.35,0,*67
1547831247.28,54227,0.0,0.0,-16.61,-17.31,-17.21,0,*67
1547831248.49,54228,0.0,0.0,-16.59,-17.31,-17.31,0,*62
1547831249.7,54229,0.0,0.0,-16.59,-17.35,-17.31,0,*67
1547831250.95,54230,0.0,0.0,-16.61,-17.35,-17.35,0,*60
1547831252.25,54231,0.0,0.0,-16.61,-17.45,-17.45,0,*61
1547831253.52,54232,0.0,0.0,-16.61,-17.35,-17.45,0,*65
1547831254.78,54233,0.0,0.0,-16.61,-17.49,-17.45,0,*6F
1547831256.06,54234,0.0,0.0,-16.61,-17.45,-17.35,0,*63
1547831257.33,54235,0.0,0.0,-16.61,-17.35,-17.45,0,*62
1547831258.56,54236,0.0,0.0,-16.59,-17.35,-17.35,0,*6D
1547831259.82,54237,0.0,0.0,-16.61,-17.45,-17.49,0,*6B
1547831261.06,54238,0.0,0.0,-16.59,-17.49,-17.63,0,*6B
1547831262.33,54239,0.0,0.0,-16.57,-17.49,-17.45,0,*60
1547831263.59,54240,0.0,0.0,-16.61,-17.63,-17.69,0,*6D
1547831264.85,54241,0.0,0.0,-16.61,-17.69,-17.79,0,*67
1547831266.11,54242,0.0,0.0,-16.59,-17.79,-17.93,0,*6A
1547831267.39,54243,0.0,0.0,-16.59,-17.97,-17.97,0,*6F
1547831268.6,54244,0.0,0.0,-16.59,-18.11,-18.11,0,*68
1547831269.9,54245,0.0,0.0,-16.61,-17.97,-17.97,0,*62
1547831271.15,54246,0.0,0.0,-16.61,-17.83,-17.83,0,*61
1547831272.39,54247,0.0,0.0,-16.61,-18.07,-18.07,0,*60
1547831273.63,54248,0.0,0.0,-16.61,-18.11,-18.11,0,*6F
1547831274.9,54249,0.0,0.0,-16.63,-18.01,-17.97,0,*6C
1547831276.12,54250,0.0,0.0,-16.63,-17.87,-17.87,0,*64
1547831277.34,54251,0.0,0.0,-16.63,-17.83,-17.73,0,*6A
1547831278.58,54252,0.0,0.0,-16.65,-17.83,-17.83,0,*60
1547831279.85,54253,0.0,0.0,-16.65,-17.87,-17.97,0,*60
1547831281.11,54254,0.0,0.0,-16.65,-17.87,-17.97,0,*67
1547831282.36,54255,0.0,0.0,-16.65,-17.83,-17.87,0,*63
1547831283.59,54256,0.0,0.0,-16.65,-17.73,-17.73,0,*64
1547831284.82,54257,0.0,0.0,-16.65,-17.69,-17.73,0,*6E
1547831286.09,54258,0.0,0.0,-16.63,-17.59,-17.59,0,*6C
1547831287.38,54259,0.0,0.0,-16.65,-17.59,-17.59,0,*6B
1547831288.67,54260,0.0,0.0,-16.65,-17.59,-17.59,0,*61
1547831289.95,54261,0.0,0.0,-16.65,-17.59,-17.59,0,*60
1547831291.24,54262,0.0,0.0,-16.65,-17.59,-17.59,0,*63
1547831292.48,54263,0.0,0.0,-16.65,-17.69,-17.69,0,*62
1547831293.77,54264,0.0,0.0,-16.65,-17.59,-17.55,0,*69
1547831295.06,54265,0.0,0.0,-16.65,-17.41,-17.41,0,*64
1547831296.32,54266,0.0,0.0,-16.65,-17.49,-17.41,0,*6F
1547831297.58,54267,0.0,0.0,-16.65,-17.55,-17.49,0,*6B
1547831298.82,54268,0.0,0.0,-16.65,-17.49,-17.49,0,*69
1547831300.08,54269,0.0,0.0,-16.65,-17.49,-17.41,0,*60
1547831301.33,54270,0.0,0.0,-16.63,-17.35,-17.41,0,*65
1547831302.58,54271,0.0,0.0,-16.63,-17.41,-17.35,0,*64
1547831303.84,54272,0.0,0.0,-16.63,-17.41,-17.25,0,*66
1547831305.08,54273,0.0,0.0,-16.63,-17.41,-17.49,0,*6D
1547831306.32,54274,0.0,0.0,-16.63,-17.49,-17.55,0,*6F
1547831307.54,54275,0.0,0.0,-16.63,-17.49,-17.49,0,*63
1547831308.82,54276,0.0,0.0,-16.65,-17.55,-17.41,0,*63
1547831310.04,54277,0.0,0.0,-16.63,-17.49,-17.49,0,*61
1547831311.28,54278,0.0,0.0,-16.65,-17.35,-17.35,0,*68
1547831312.53,54279,0.0,0.0,-16.63,-17.41,-17.35,0,*6C
1547831313.78,54280,0.0,0.0,-16.63,-17.41,-17.35,0,*6A
1547831315.02,54281,0.0,0.0,-16.63,-17.35,-17.25,0,*69
1547831316.26,54282,0.0,0.0,-16.63,-17.49,-17.41,0,*63
1547831317.53,54283,0.0,0.0,-16.63,-17.41,-17.41,0,*6A
1547831318.8,54284,0.0,0.0,-16.63,-17.41,-17.55,0,*68
1547831320.04,54285,0.0,0.0,-16.63,-17.35,-17.41,0,*6F
1547831321.28,54286,0.0,0.0,-16.61,-17.31,-17.31,0,*6D
1547831322.52,54287,0.0,0.0,-16.61,-17.31,-17.35,0,*68
1547831323.77,54288,0.0,0.0,-16.61,-17.35,-17.35,0,*63
1547831325.04,54289,0.0,0.0,-16.61,-17.35,-17.21,0,*67
1547831326.33,54290,0.0,0.0,-16.61,-17.21,-17.17,0,*6F
1547831327.59,54291,0.0,0.0,-16.61,-17.31,-17.17,0,*6F
1547831328.84,54292,0.0,0.0,-16.61,-17.31,-17.17,0,*6C
1547831330.08,54293,0.0,0.0,-16.61,-17.31,-17.31,0,*69
1547831331.37,54294,0.0,0.0,-16.61,-17.21,-17.21,0,*6E
1547831332.64,54295,0.0,0.0,-16.59,-17.21,-17.21,0,*64
1547831333.93,54296,0.0,0.0,-16.61,-17.21,-17.21,0,*6C
1547831335.19,54297,0.0,0.0,-16.61,-17.31,-17.17,0,*69
1547831336.43,54298,0.0,0.0,-16.59,-17.31,-17.21,0,*68
1547831337.69,54299,0.0,0.0,-16.59,-17.21,-17.21,0,*68
1547831338.93,54300,0.0,0.0,-16.59,-17.31,-17.21,0,*68
1547831340.22,54301,0.0,0.0,-16.61,-17.21,-17.21,0,*63
1547831341.52,54302,0.0,0.0,-16.61,-17.21,-17.21,0,*60
1547831342.8,54303,0.0,0.0,-16.61,-17.21,-17.17,0,*64
1547831344.07,54304,0.0,0.0,-16.59,-17.21,-17.17,0,*68
1547831345.34,54305,0.0,0.0,-16.59,-17.17,-17.21,0,*69
1547831346.61,54306,0.0,0.0,-16.59,-17.21,-17.21,0,*6F
1547831347.88,54307,0.0,0.0,-16.59,-17.21,-17.21,0,*6E